Flag for Ukraine Weather past 2 weeks in Odesa, Ukraine

54 °F

Passing clouds.

Feels Like: 52 °F
Forecast: 46 / 53 °F
Wind: 6 mph from Southeast

Location: Odesa Airport

Current Time: Oct 9, 2015 at 10:33:54 AM

Latest Report: Oct 9, 2015 at 10:00 AM

Visibility: N/A

Pressure: 30.15 "Hg

Humidity: 44%

Dew point: 32 °F

Location of OdesaLocation

Historic Weather in Odesa — Graph


Odesa temperature yesterday

Maximum temperature yesterday: 52 °F (at 3:30 PM)
Minimum temperature yesterday: 37 °F (at 9:00 PM)
Average temperature yesterday: 46 °F

Past Weeks' High & Low Weather Summary

High84 °F (Sep 27, 2:30 PM)100% (Sep 24, 10:00 PM)30.36 "Hg (Sep 24, 10:00 PM)
Low36 °F (Oct 9, 1:30 AM)15% (Oct 3, 4:30 PM)29.74 "Hg (Oct 7, 1:30 AM)
Average61 °F68%30.09 "Hg
* Reported Sep 24 9:00 AM — Oct 9 9:30 AM, Odesa, Weather by CustomWeather, © 2015

Note: Actual official high and low records may vary slightly from our data, if they occured in-between our weather recording intervals... More about our weather records


Odesa weather history for previous 24 hours

Time TempWeatherWind HumidityBarometerVisibility
9:30 AM
Fri, Oct 9
54 °FPassing clouds.6 mph47%30.15 "HgN/A
9:00 AM52 °FSunny.3 mph50%30.15 "Hg10 mi
8:30 AM48 °FSunny.No wind62%30.15 "Hg10 mi
8:00 AM45 °FClear.No wind66%30.15 "Hg10 mi
7:30 AM41 °FClear.3 mph76%30.15 "Hg10 mi
7:00 AM39 °FClear.3 mph70%30.15 "Hg10 mi
6:30 AM39 °FClear.6 mph70%30.15 "Hg10 mi
6:00 AM36 °FClear.3 mph75%30.15 "Hg10 mi
5:30 AM37 °FClear.No wind75%30.15 "Hg10 mi
5:00 AM37 °FClear.1 mph70%30.15 "Hg10 mi
4:30 AM37 °FClear.No wind70%30.15 "Hg10 mi
4:00 AM37 °FClear.3 mph65%30.15 "Hg10 mi
3:30 AM37 °FClear.3 mph60%30.15 "Hg10 mi
3:00 AM37 °FClear.3 mph60%30.15 "Hg10 mi
2:30 AM37 °FClear.3 mph65%30.18 "Hg10 mi
2:00 AM36 °FClear.6 mph65%30.18 "Hg10 mi
1:30 AM36 °FClear.3 mph70%30.18 "Hg10 mi
12:30 AM37 °FClear.No wind60%30.18 "Hg10 mi
12:00 AM37 °FClear.No wind60%30.18 "Hg10 mi
11:30 PM
Thu, Oct 8
39 °FClear.No wind61%30.21 "Hg10 mi
11:00 PM41 °FClear.1 mph57%30.21 "Hg10 mi
10:30 PM39 °FClear.No wind61%30.21 "Hg10 mi
10:00 PM39 °FClear.No wind61%30.21 "Hg10 mi
9:30 PM41 °FClear.6 mph57%30.21 "Hg10 mi
9:00 PM37 °FClear.6 mph60%30.21 "Hg4 mi
8:30 PM39 °FClear.No wind56%30.21 "Hg10 mi
8:00 PM41 °FClear.No wind53%30.21 "Hg10 mi
7:30 PM45 °FClear.No wind46%30.21 "Hg10 mi
7:00 PM45 °FSunny.No wind46%30.21 "Hg10 mi
6:30 PM46 °FSunny.1 mph43%30.21 "Hg10 mi
6:00 PM48 °FPassing clouds.3 mph43%30.21 "HgN/A
5:30 PM50 °FPassing clouds.6 mph35%30.21 "HgN/A
5:00 PM50 °FPassing clouds.6 mph35%30.24 "HgN/A
4:30 PM52 °FPassing clouds.8 mph32%30.24 "HgN/A
4:00 PM52 °FPassing clouds.10 mph32%30.24 "HgN/A
3:30 PM52 °FPassing clouds.10 mph38%30.24 "HgN/A
3:00 PM50 °FPassing clouds.10 mph37%30.24 "HgN/A
2:30 PM50 °FPassing clouds.8 mph40%30.24 "HgN/A
2:00 PM50 °FPassing clouds.8 mph40%30.24 "HgN/A
1:30 PM50 °FPassing clouds.8 mph40%30.27 "HgN/A
1:00 PM50 °FScattered clouds.10 mph37%30.27 "HgN/A
12:30 PM50 °FScattered clouds.8 mph43%30.27 "HgN/A
12:00 PM50 °FScattered clouds.8 mph43%30.27 "HgN/A
11:30 AM48 °FScattered clouds.10 mph43%30.27 "HgN/A
11:00 AM50 °FScattered clouds.8 mph40%30.27 "HgN/A
10:30 AM48 °FScattered clouds.6 mph46%30.24 "HgN/A
10:00 AM48 °FScattered clouds.15 mph43%30.24 "HgN/A
Weather by CustomWeather, © 2015

See weather overviewHow to use our weather pages